Location: Central Falls
(41.8900°N, 71.3929°W)
Time: 04:27:00
(UTC+00:00)

Tiros 1 - Pass Details

Date: 12 December 2023
Orbit: 625 x 658 km, 48.4° (Epoch: 01 March)

Event Time Altitude Azimuth Distance (km) Brightness Sun altitude
Rises 12:18:08 0° 296° (WNW) 2,989 9.9 1.4°
Reaches altitude 10° 12:20:32 10° 291° (WNW) 2,074 9.1 1.8°
Maximum altitude 12:25:10 51° 216° (SW) 827 7.8 2.5°
Drops below altitude 10° 12:29:46 10° 141° (SE) 2,057 11.6 3.2°
Sets 12:32:08 0° 136° (SE) 2,961 12.8 3.6°
